Location: Liscomb Game Sanctuary
(45.1633°N, 62.5575°W)
Time: 23:58:04
(UTC-03:00)

Amateur Radio Satellites - All Passes

Search period start: 29 July 2014 23:28
Search period end: 30 July 2014 23:28
Location: Liscomb Game Sanctuary, 45.1633°N, 62.5575°W

Satellite Date Start Highest point End Downlink Frequencies (MHz)
Time Altitude Azimuth
MaSat-1 29 Jul 23:32:26 23:35:17 16° 320° (NW) 23:38:19 437.345 MHz
Sapphire 29 Jul 23:38:22 23:39:16 10° 101° (E) 23:40:09 437.095 MHz 1200 baud AX-25 AFSK
PCSat 30 Jul 00:08:02 00:12:07 22° 107° (ESE) 00:16:14 145.825 MHz
UOSAT-12 30 Jul 00:21:46 00:25:46 28° 246° (WSW) 00:29:44 437.025 FM, 437.400 FM
ISS 30 Jul 00:44:23 00:47:43 74° 332° (NNW) 00:51:05 145.800 FM
RS-15 30 Jul 01:15:16 01:22:42 21° 260° (W) 01:30:20 29.354 - 29.394 USB, Beacon 29.352 USB
Sapphire 30 Jul 01:16:19 01:21:42 74° 119° (ESE) 01:27:08 437.095 MHz 1200 baud AX-25 AFSK
Oscar 19 30 Jul 01:38:49 01:42:06 17° 90° (E) 01:45:22 437.125 CW, 437.150 USB
PCSat 30 Jul 01:49:46 01:55:06 60° 306° (NW) 02:00:29 145.825 MHz
Oscar 16 30 Jul 02:06:26 02:11:00 31° 95° (E) 02:15:33 437.025 USB, Beacon 2401.1428
ISS 30 Jul 02:21:52 02:24:49 28° 352° (N) 02:27:47 145.800 FM
ITAMSAT 1 30 Jul 02:29:41 02:33:43 23° 93° (E) 02:37:43 435.822 SSB
Uribyol 2 30 Jul 02:48:25 02:53:08 35° 97° (E) 02:57:48 436.500 FM
AO-27 30 Jul 02:48:42 02:53:24 34° 96° (E) 02:58:04 436.795 MHz FM
JAS-1B 30 Jul 02:53:04 03:01:21 34° 90° (E) 03:08:34 435.800 - 435.900 CW/SSB
TMSAT-1 30 Jul 02:53:50 02:55:37 12° 87° (E) 02:57:24 436.925 FM
Sapphire 30 Jul 03:01:27 03:05:42 23° 319° (NW) 03:09:59 437.095 MHz 1200 baud AX-25 AFSK
Gurwin Techsat 1B 30 Jul 03:16:46 03:21:13 27° 94° (E) 03:25:39 435.225 FM
Oscar 19 30 Jul 03:16:47 03:21:55 67° 287° (WNW) 03:27:03 437.125 CW, 437.150 USB
AO-Echo 30 Jul 03:25:27 03:30:34 76° 103° (ESE) 03:35:28 ?
PCSat 30 Jul 03:36:39 03:39:42 15° 328° (NNW) 03:42:45 145.825 MHz
Oscar 16 30 Jul 03:45:41 03:50:23 37° 293° (WNW) 03:55:06 437.025 USB, Beacon 2401.1428
OPAL 30 Jul 03:47:36 03:52:24 53° 68° (ENE) 03:57:14 ?
AO-40 30 Jul 03:55:10 04:58:47 14° 229° (SW) 06:31:27 Beacon 2401.320
ISS 30 Jul 03:59:07 04:02:10 31° 12° (NNE) 04:05:13 145.800 FM
ITAMSAT 1 30 Jul 04:08:29 04:13:29 50° 290° (WNW) 04:18:27 435.822 SSB
Oscar 10/S400 30 Jul 04:09:27 05:15:03 47° 215° (SW) 11:25:26 145.825 - 145.975 CW/USB, Beacon 145.810 USB
Uribyol 2 30 Jul 04:27:59 04:32:33 33° 294° (WNW) 04:37:06 436.500 FM
AO-27 30 Jul 04:28:15 04:32:54 34° 294° (WNW) 04:37:31 436.795 MHz FM
TMSAT-1 30 Jul 04:30:59 04:36:19 86° 104° (ESE) 04:41:37 436.925 FM
MaSat-1 30 Jul 04:34:18 04:35:32 11° 33° (NNE) 04:36:47 437.345 MHz
AO-7 30 Jul 04:42:46 04:50:00 32° 95° (E) 04:57:10 29.400 - 29.500 MHz
JAS-1B 30 Jul 04:43:05 04:52:27 64° 293° (WNW) 05:00:30 435.800 - 435.900 CW/SSB
KITSAT 1 30 Jul 04:54:15 04:58:38 16° 99° (E) 05:03:02 435.175 FM
Gurwin Techsat 1B 30 Jul 04:56:20 05:01:22 44° 292° (WNW) 05:06:22 435.225 FM
Oscar 19 30 Jul 04:59:17 05:00:18 11° 306° (NW) 05:01:20 437.125 CW, 437.150 USB
AO-Echo 30 Jul 05:05:40 05:08:41 16° 302° (WNW) 05:11:38 ?
Uosat F 30 Jul 05:23:17 05:28:16 62° 102° (ESE) 05:33:13 435.120 FM
OPAL 30 Jul 05:28:01 05:31:36 20° 266° (W) 05:35:14 ?
ISS 30 Jul 05:35:47 05:39:09 80° 211° (SSW) 05:42:31 145.800 FM
MaSat-1 30 Jul 06:09:12 06:14:17 43° 54° (NE) 06:19:10 437.345 MHz
TMSAT-1 30 Jul 06:12:34 06:15:31 15° 303° (WNW) 06:18:28 436.925 FM
STRAND 1 30 Jul 06:12:49 06:17:24 34° 66° (ENE) 06:21:59 ?
JAS-1B 30 Jul 06:35:04 06:40:58 19° 316° (NW) 06:46:30 435.800 - 435.900 CW/SSB
AO-7 30 Jul 06:35:04 06:43:17 64° 295° (WNW) 06:51:25 29.400 - 29.500 MHz
KITSAT 1 30 Jul 06:44:36 06:52:40 75° 119° (ESE) 07:00:46 435.175 FM
Hamsat 30 Jul 07:03:01 07:07:17 57° 100° (E) 07:11:33 145.90 MHz
Uosat F 30 Jul 07:03:06 07:06:36 19° 300° (WNW) 07:10:05 435.120 FM
JAS-2 30 Jul 07:04:50 07:10:31 44° 97° (E) 07:15:38 435.800 - 435.900 CW/SSB, 435.910 FM
ISS 30 Jul 07:13:56 07:15:22 12° 228° (SW) 07:16:49 145.800 FM
Saudisat 1A 30 Jul 07:41:51 07:46:05 47° 120° (ESE) 07:50:21 436.775 MHz
MaSat-1 30 Jul 07:46:53 07:51:29 31° 254° (WSW) 07:55:50 437.345 MHz
STRAND 1 30 Jul 07:51:55 07:56:33 34° 264° (W) 08:01:13 ?
SO-67 30 Jul 08:16:22 08:19:50 61° 100° (E) 08:23:16 435.3500 MHz FM
Sapphire 30 Jul 08:19:42 08:23:38 20° 38° (NE) 08:27:34 437.095 MHz 1200 baud AX-25 AFSK
AO-7 30 Jul 08:29:33 08:34:30 18° 317° (NW) 08:39:26 29.400 - 29.500 MHz
Hamsat 30 Jul 08:40:12 08:42:49 16° 297° (WNW) 08:45:26 145.90 MHz
KITSAT 1 30 Jul 08:41:34 08:48:48 35° 322° (NW) 08:56:05 435.175 FM
JAS-2 30 Jul 08:50:17 08:55:23 29° 299° (WNW) 09:00:03 435.800 - 435.900 CW/SSB, 435.910 FM
PCSat 30 Jul 08:52:36 08:57:28 32° 46° (NE) 09:02:17 145.825 MHz
Saudisat 1A 30 Jul 09:22:08 09:25:53 26° 319° (NW) 09:29:38 436.775 MHz
UKube-1 30 Jul 09:25:00 09:27:10 14° 90° (E) 09:29:20 145.840 MHz, 145.915 MHz
HO-68 30 Jul 09:48:35 09:55:19 42° 98° (E) 10:02:00 435.675 MHz FM
SO-67 30 Jul 09:52:03 09:52:24 10° 298° (WNW) 09:52:46 435.3500 MHz FM
Sapphire 30 Jul 10:02:22 10:07:50 90° 57° (ENE) 10:13:16 437.095 MHz 1200 baud AX-25 AFSK
Oscar 11 30 Jul 10:07:48 10:11:06 21° 93° (E) 10:14:24 145.825 FM, Beacon 2401.500 USB
FUNcube-1 30 Jul 10:33:35 10:35:52 14° 91° (E) 10:38:11 145.950 - 145.970 MHz USB
PCSat 30 Jul 10:35:52 10:41:04 47° 246° (WSW) 10:46:13 145.825 MHz
KITSAT 1 30 Jul 10:42:04 10:47:06 17° 351° (N) 10:52:08 435.175 FM
UKube-1 30 Jul 10:59:29 11:03:48 63° 287° (WNW) 11:08:05 145.840 MHz, 145.915 MHz
RS-15 30 Jul 11:26:30 11:27:36 10° 92° (E) 11:28:42 29.354 - 29.394 USB, Beacon 29.352 USB
HO-68 30 Jul 11:36:23 11:43:00 42° 297° (WNW) 11:49:36 435.675 MHz FM
Oscar 11 30 Jul 11:43:23 11:47:26 39° 290° (WNW) 11:51:29 145.825 FM, Beacon 2401.500 USB
Sapphire 30 Jul 11:47:48 11:50:28 14° 257° (WSW) 11:53:07 437.095 MHz 1200 baud AX-25 AFSK
JAS-1B 30 Jul 11:55:38 11:58:34 12° 35° (NE) 12:01:30 435.800 - 435.900 CW/SSB
FUNcube-1 30 Jul 12:08:32 12:12:37 54° 287° (WNW) 12:16:44 145.950 - 145.970 MHz USB
Uribyol 2 30 Jul 12:34:06 12:34:50 10° 53° (NE) 12:35:35 436.500 FM
AO-27 30 Jul 12:34:54 12:35:23 10° 53° (NE) 12:35:51 436.795 MHz FM
KITSAT 1 30 Jul 12:40:18 12:46:08 21° 21° (NNE) 12:51:57 435.175 FM
SO-50 30 Jul 12:41:31 12:45:52 55° 121° (ESE) 12:50:20 436.795 FM
Oscar 19 30 Jul 12:57:24 13:01:48 30° 65° (ENE) 13:06:14 437.125 CW, 437.150 USB
AO-Echo 30 Jul 13:03:24 13:06:59 19° 60° (ENE) 13:10:35 ?
Oscar 16 30 Jul 13:25:20 13:30:19 55° 71° (ENE) 13:35:19 437.025 USB, Beacon 2401.1428
RS-15 30 Jul 13:26:33 13:37:14 56° 114° (ESE) 13:47:43 29.354 - 29.394 USB, Beacon 29.352 USB
JAS-1B 30 Jul 13:37:56 13:46:12 39° 58° (ENE) 13:54:58 435.800 - 435.900 CW/SSB
ITAMSAT 1 30 Jul 13:49:26 13:54:19 42° 68° (ENE) 13:59:13 435.822 SSB
AO-7 30 Jul 13:56:41 14:00:43 15° 40° (NE) 14:04:44 29.400 - 29.500 MHz
Uribyol 2 30 Jul 14:08:12 14:13:20 65° 72° (ENE) 14:18:29 436.500 FM
AO-27 30 Jul 14:08:44 14:13:53 63° 72° (ENE) 14:19:03 436.795 MHz FM
TMSAT-1 30 Jul 14:15:30 14:19:40 24° 62° (ENE) 14:23:52 436.925 FM
SO-50 30 Jul 14:23:03 14:26:45 24° 321° (NW) 14:30:32 436.795 FM
Saudisat 1A 30 Jul 14:28:08 14:30:39 15° 32° (NNE) 14:33:09 436.775 MHz
UOSAT-12 30 Jul 14:34:00 14:38:29 55° 120° (ESE) 14:43:05 437.025 FM, 437.400 FM
KITSAT 1 30 Jul 14:35:43 14:43:38 53° 48° (NE) 14:51:28 435.175 FM
Oscar 19 30 Jul 14:36:19 14:41:02 37° 263° (W) 14:45:48 437.125 CW, 437.150 USB
Gurwin Techsat 1B 30 Jul 14:39:42 14:44:49 50° 70° (ENE) 14:49:57 435.225 FM
AO-Echo 30 Jul 14:39:54 14:45:12 71° 258° (WSW) 14:50:31 ?
Uosat F 30 Jul 15:02:28 15:05:25 16° 58° (ENE) 15:08:22 435.120 FM
Oscar 16 30 Jul 15:06:16 15:10:01 20° 268° (W) 15:13:46 437.025 USB, Beacon 2401.1428
JAS-1B 30 Jul 15:27:02 15:36:01 67° 259° (W) 15:45:56 435.800 - 435.900 CW/SSB
ITAMSAT 1 30 Jul 15:29:34 15:33:57 27° 266° (W) 15:38:21 435.822 SSB
RS-15 30 Jul 15:39:02 15:49:44 52° 319° (NW) 16:00:23 29.354 - 29.394 USB, Beacon 29.352 USB
AO-7 30 Jul 15:43:38 15:51:38 53° 62° (ENE) 15:59:39 29.400 - 29.500 MHz
Uribyol 2 30 Jul 15:49:52 15:53:16 17° 269° (W) 15:56:41 436.500 FM
AO-27 30 Jul 15:50:19 15:53:50 18° 269° (W) 15:57:22 436.795 MHz FM
TMSAT-1 30 Jul 15:54:08 15:59:16 51° 260° (W) 16:04:27 436.925 FM
OPAL 30 Jul 15:57:54 15:59:18 11° 90° (E) 16:00:42 ?
Saudisat 1A 30 Jul 16:06:37 16:11:03 70° 53° (NE) 16:15:26 436.775 MHz
UOSAT-12 30 Jul 16:15:04 16:18:57 26° 320° (NW) 16:22:54 437.025 FM, 437.400 FM
Gurwin Techsat 1B 30 Jul 16:20:53 16:25:03 23° 267° (W) 16:29:15 435.225 FM
KITSAT 1 30 Jul 16:31:26 16:38:53 43° 249° (WSW) 16:46:18 435.175 FM
Uosat F 30 Jul 16:38:32 16:43:35 79° 256° (WSW) 16:48:40 435.120 FM
JAS-2 30 Jul 17:17:43 17:24:15 32° 62° (ENE) 17:30:21 435.800 - 435.900 CW/SSB, 435.910 FM
JAS-1B 30 Jul 17:23:22 17:28:26 16° 281° (W) 17:33:46 435.800 - 435.900 CW/SSB
OPAL 30 Jul 17:33:47 17:38:53 85° 107° (ESE) 17:44:02 ?
AO-7 30 Jul 17:36:54 17:44:36 40° 262° (W) 17:52:22 29.400 - 29.500 MHz
Saudisat 1A 30 Jul 17:47:40 17:50:05 15° 250° (WSW) 17:52:30 436.775 MHz
RS-15 30 Jul 17:56:20 18:05:19 28° 351° (N) 18:14:23 29.354 - 29.394 USB, Beacon 29.352 USB
Hamsat 30 Jul 17:58:21 18:02:24 52° 73° (ENE) 18:06:30 145.90 MHz
SO-67 30 Jul 18:51:46 18:54:45 27° 70° (ENE) 18:57:45 435.3500 MHz FM
JAS-2 30 Jul 19:01:13 19:08:54 62° 259° (W) 19:16:03 435.800 - 435.900 CW/SSB, 435.910 FM
OPAL 30 Jul 19:14:15 19:17:07 15° 305° (NW) 19:20:01 ?
SO-50 30 Jul 19:31:19 19:34:37 19° 35° (NE) 19:37:58 436.795 FM
Hamsat 30 Jul 19:36:16 19:38:42 15° 270° (W) 19:41:09 145.90 MHz
STRAND 1 30 Jul 19:59:47 20:04:54 70° 103° (ESE) 20:09:58 ?
MaSat-1 30 Jul 20:06:34 20:06:58 10° 96° (E) 20:07:23 437.345 MHz
RS-15 30 Jul 20:12:08 20:21:56 35° 26° (NNE) 20:31:54 29.354 - 29.394 USB, Beacon 29.352 USB
HO-68 30 Jul 20:19:19 20:25:53 41° 62° (ENE) 20:32:26 435.675 MHz FM
UKube-1 30 Jul 20:22:32 20:25:21 17° 62° (ENE) 20:28:11 145.840 MHz, 145.915 MHz
SO-67 30 Jul 20:25:19 20:27:51 19° 267° (W) 20:30:24 435.3500 MHz FM
JAS-2 30 Jul 20:52:44 20:55:05 12° 277° (W) 20:57:23 435.800 - 435.900 CW/SSB, 435.910 FM
Oscar 11 30 Jul 21:05:06 21:08:25 22° 65° (ENE) 21:11:45 145.825 FM, Beacon 2401.500 USB
SO-50 30 Jul 21:11:05 21:15:52 88° 54° (NE) 21:20:41 436.795 FM
UOSAT-12 30 Jul 21:22:20 21:25:36 18° 33° (NNE) 21:28:50 437.025 FM, 437.400 FM
FUNcube-1 30 Jul 21:32:23 21:35:04 17° 63° (ENE) 21:37:44 145.950 - 145.970 MHz USB
MaSat-1 30 Jul 21:39:02 21:43:14 89° 298° (WNW) 21:48:08 437.345 MHz
STRAND 1 30 Jul 21:40:13 21:43:32 18° 301° (WNW) 21:46:51 ?
UKube-1 30 Jul 21:56:52 22:01:09 55° 259° (W) 22:05:28 145.840 MHz, 145.915 MHz
HO-68 30 Jul 22:06:43 22:13:30 45° 261° (W) 22:20:20 435.675 MHz FM
ISS 30 Jul 22:21:52 22:22:44 11° 131° (SE) 22:23:36 145.800 FM
RS-15 30 Jul 22:24:59 22:36:04 84° 54° (NE) 22:47:32 29.354 - 29.394 USB, Beacon 29.352 USB
Oscar 11 30 Jul 22:40:23 22:44:24 38° 262° (W) 22:48:26 145.825 FM, Beacon 2401.500 USB
SO-50 30 Jul 22:53:38 22:55:46 13° 252° (WSW) 22:57:55 436.795 FM
UOSAT-12 30 Jul 23:01:43 23:06:29 84° 54° (NE) 23:11:10 437.025 FM, 437.400 FM
FUNcube-1 30 Jul 23:06:55 23:11:07 52° 260° (W) 23:15:15 145.950 - 145.970 MHz USB
MaSat-1 30 Jul 23:18:34 23:21:26 16° 320° (NW) 23:24:29 437.345 MHz
